Terminal Aerodrome Forecast
Issued by NWS Charleston, WV

Current Version | Previous Version | Graphics & Text | Print | Product List | Glossary On
Versions: 1 2 3 4 5 6 7 8 9 10 11 12 13 14 15 16 17 18 19 20 21 22
285
FTUS41 KRLX 272100 AAA
TAFBKW
TAF AMD
KBKW 272100Z 2721/2818 28010G16KT 5SM RA BKN040 OVC050
      TEMPO 2721/2722 4SM SHRA OVC025
     FM272200 20011KT P6SM BKN050
     FM280000 24009KT P6SM BKN050
     FM280500 27005KT P6SM BKN040
     FM280800 VRB03KT P6SM SCT250=

USA.gov is the U.S. government's official web portal to all federal, state and local government web resources and services.